Regional Weather Roundup
Issued by NWS Cleveland, OH

Home | Current Version | Previous Version | Text Only | Print | Product List | Glossary Off
Versions: 1 2 3 4 5 6 7 8 9 10 11 12 13 14 15 16 17 18 19 20 21 22 23 24 25 26 27 28 29 30 31 32 33 34 35 36 37 38 39 40 41 42 43 44 45 46 47 48 49 50

000
ASUS41 KCLE 251302
RWRCLE
OHIO REGIONAL WEATHER ROUNDUP
NATIONAL WEATHER SERVICE CLEVELAND, OH
900 AM EDT MON JUL 25 2016

NOTE: "FAIR" INDICATES FEW OR NO CLOUDS BELOW 12,000 FEET WITH NO
SIGNIFICANT WEATHER AND/OR OBSTRUCTIONS TO VISIBILITY.

OHZ001>008-015>018-024>027-034-035-043-044-251400-
   NORTHWEST OHIO

CITY           SKY/WX    TMP DP  RH WIND       PRES   REMARKS
DEFIANCE       CLOUDY    75  67  76 SW5       29.98R
FINDLAY        CLOUDY    78  67  68 W10       29.98R
TOLEDO EXPRESS CLOUDY    76  70  82 W15       29.96R
TOLEDO EXEC    CLOUDY    78  70  76 W12       29.96R
LIMA           SUNNY     77  71  82 W7        30.00S
$$

OHZ009>014-019>023-028>033-038-089-251400-
   NORTHEAST OHIO

CITY           SKY/WX    TMP DP  RH WIND       PRES   REMARKS
CLE-HOPKINS    PTSUNNY   82  73  74 SW10      29.97R
CLE-LAKEFRONT  CLOUDY    82  73  74 SW13      29.93R
CUY CO. ARPT   PTSUNNY   82  75  78 W12       29.95R
LORAIN-ELYRIA  SUNNY     81  74  79 W9        29.96R
ASHTABULA      MOSUNNY   79  74  84 W8        29.95R
AKRON-CANTON   MOSUNNY   79  73  82 SW8       29.98R HAZE
WOOSTER        SUNNY     79  74  84 W8        29.99R
MANSFIELD      CLOUDY    79  75  87 W8G16     29.99S
YOUNGSTOWN     PTSUNNY   79  73  82 SW8       29.97R
$$

OHZ042-051>053-060>062-070>072-077>081-251400-
  SOUTHWEST OHIO

CITY           SKY/WX    TMP DP  RH WIND       PRES   REMARKS
CINC-COVINGTON PTSUNNY   80  77  90 SW8       30.01S
CINC-LUNKEN    PTSUNNY   80  77  90 CALM      30.00S
HAMILTON       MOSUNNY   82  75  79 W6        30.00F
DAYTON         MOSUNNY   82  69  64 W9        30.01F
WRIGHT-PAT AFB MOSUNNY   83  72  69 W3        29.99S
DAYTON GENERAL MOSUNNY   81  73  76 SW3       30.00F
WILMINGTON     MOSUNNY   80  76  87 SW8       30.01S
$$

OHZ036-037-039>041-045>050-054>059-063>069-073>076-082>088-251400-
  CENTRAL AND SOUTHEAST OHIO

CITY           SKY/WX    TMP DP  RH WIND       PRES   REMARKS
COLUMBUS       PTSUNNY   81  74  79 SW9       29.98S
OSU AIRPORT    SUNNY     82  74  76 W15       29.99R
BOLTON FIELD   SUNNY     81  77  89 W9        30.00S
RICKENBACK AFB SUNNY     80  75  86 SW6       29.98F
NEWARK         MOSUNNY   82  76  81 VRB6      29.98S
MARION         MOSUNNY   79  72  79 W7        29.99R
LANCASTER      MOSUNNY   82  77  84 W8        30.00R HX  90
ZANESVILLE     MOSUNNY   85  75  72 VRB5      29.99R HX  93
NEW PHILLY     SUNNY     83  73  72 VRB5      29.98R
$$




USA.gov is the U.S. government's official web portal to all federal, state and local government web resources and services.